����������;��������(kWh)
2018-04-23 00:00;78,3
2018-04-23 00:15;77,3
2018-04-23 00:30;77,85
2018-04-23 00:45;75,5
2018-04-23 01:00;75,2
2018-04-23 01:15;78,4
2018-04-23 01:30;78
2018-04-23 01:45;78,25
2018-04-23 02:00;77,7
2018-04-23 02:15;77,75
2018-04-23 02:30;79,45
2018-04-23 02:45;77,35
2018-04-23 03:00;79,55
2018-04-23 03:15;79
2018-04-23 03:30;79,85
2018-04-23 03:45;81,7
2018-04-23 04:00;80,3
2018-04-23 04:15;78,95
2018-04-23 04:30;80,65
2018-04-23 04:45;78,5
2018-04-23 05:00;80,15
2018-04-23 05:15;80,15
2018-04-23 05:30;80,4
2018-04-23 05:45;83
2018-04-23 06:00;79,7
2018-04-23 06:15;78,1
2018-04-23 06:30;78,25
2018-04-23 06:45;76,2
2018-04-23 07:00;79,7
2018-04-23 07:15;80,4
2018-04-23 07:30;77,05
2018-04-23 07:45;80,6
2018-04-23 08:00;83,45
2018-04-23 08:15;87,7
2018-04-23 08:30;92,05
2018-04-23 08:45;93,2
2018-04-23 09:00;94,8
2018-04-23 09:15;101,5
2018-04-23 09:30;107,4
2018-04-23 09:45;109,45
2018-04-23 10:00;111,9
2018-04-23 10:15;115,75
2018-04-23 10:30;116,5
2018-04-23 10:45;118,15
2018-04-23 11:00;123,65
2018-04-23 11:15;123,05
2018-04-23 11:30;126
2018-04-23 11:45;131,15
2018-04-23 12:00;131,45
2018-04-23 12:15;132,75
2018-04-23 12:30;131,8
2018-04-23 12:45;135,1
2018-04-23 13:00;137,8
2018-04-23 13:15;141,2
2018-04-23 13:30;146,5
2018-04-23 13:45;144,6
2018-04-23 14:00;141,7
2018-04-23 14:15;137,1
2018-04-23 14:30;136,7
2018-04-23 14:45;135,9
2018-04-23 15:00;133,05
2018-04-23 15:15;133,15
2018-04-23 15:30;133,65
2018-04-23 15:45;134,4
2018-04-23 16:00;126,55
2018-04-23 16:15;125,85
2018-04-23 16:30;123,85
2018-04-23 16:45;122,2
2018-04-23 17:00;121,5
2018-04-23 17:15;117,6
2018-04-23 17:30;118
2018-04-23 17:45;115,35
2018-04-23 18:00;115,05
2018-04-23 18:15;109,85
2018-04-23 18:30;101,65
2018-04-23 18:45;100,75
2018-04-23 19:00;105,95
2018-04-23 19:15;102,55
2018-04-23 19:30;97,35
2018-04-23 19:45;100,4
2018-04-23 20:00;98,6
2018-04-23 20:15;104,85
2018-04-23 20:30;101,75
2018-04-23 20:45;107,35
2018-04-23 21:00;101,65
2018-04-23 21:15;99,8
2018-04-23 21:30;97,25
2018-04-23 21:45;91,05
2018-04-23 22:00;90,25
2018-04-23 22:15;86,85
2018-04-23 22:30;84,85
2018-04-23 22:45;85,55
2018-04-23 23:00;88,65
2018-04-23 23:15;84,9
2018-04-23 23:30;87,25
2018-04-23 23:45;86,1
2018-04-24 00:00;81,2
2018-04-24 00:15;82,8
2018-04-24 00:30;79
2018-04-24 00:45;80,4
2018-04-24 01:00;80,55
2018-04-24 01:15;79
2018-04-24 01:30;79,55
2018-04-24 01:45;77,75
2018-04-24 02:00;78,15
2018-04-24 02:15;79,8
2018-04-24 02:30;77,8
2018-04-24 02:45;80,2
2018-04-24 03:00;79,05
2018-04-24 03:15;79,25
2018-04-24 03:30;81,8
2018-04-24 03:45;81,4
2018-04-24 04:00;81,75
2018-04-24 04:15;80,2
2018-04-24 04:30;79,6
2018-04-24 04:45;77,55
2018-04-24 05:00;77,2
2018-04-24 05:15;77,95
2018-04-24 05:30;79,2
2018-04-24 05:45;80,85
2018-04-24 06:00;79,05
2018-04-24 06:15;78,6
2018-04-24 06:30;78,25
2018-04-24 06:45;75,55
2018-04-24 07:00;75,55
2018-04-24 07:15;73,85
2018-04-24 07:30;75,85
2018-04-24 07:45;80,6
2018-04-24 08:00;85,9
2018-04-24 08:15;88,2
2018-04-24 08:30;92,85
2018-04-24 08:45;96,05
2018-04-24 09:00;99,7
2018-04-24 09:15;101,75
2018-04-24 09:30;106,7
2018-04-24 09:45;113,95
2018-04-24 10:00;117,3
2018-04-24 10:15;121,85
2018-04-24 10:30;123,85
2018-04-24 10:45;127,45
2018-04-24 11:00;124,95
2018-04-24 11:15;126,1
2018-04-24 11:30;127,25
2018-04-24 11:45;130,35
2018-04-24 12:00;133,65
2018-04-24 12:15;135,05
2018-04-24 12:30;139,85
2018-04-24 12:45;142,75
2018-04-24 13:00;142,1
2018-04-24 13:15;144,05
2018-04-24 13:30;145,05
2018-04-24 13:45;145,5
2018-04-24 14:00;141,95
2018-04-24 14:15;140,55
2018-04-24 14:30;139,05
2018-04-24 14:45;135,4
2018-04-24 15:00;132,75
2018-04-24 15:15;130,65
2018-04-24 15:30;128,55
2018-04-24 15:45;128,2
2018-04-24 16:00;124
2018-04-24 16:15;116,9
2018-04-24 16:30;109,5
2018-04-24 16:45;111,2
2018-04-24 17:00;108,95
2018-04-24 17:15;105,05
2018-04-24 17:30;105,6
2018-04-24 17:45;107,65
2018-04-24 18:00;102,05
2018-04-24 18:15;103,8
2018-04-24 18:30;100,7
2018-04-24 18:45;104
2018-04-24 19:00;103,7
2018-04-24 19:15;104,1
2018-04-24 19:30;103,35
2018-04-24 19:45;105,95
2018-04-24 20:00;104,4
2018-04-24 20:15;107,85
2018-04-24 20:30;105,65
2018-04-24 20:45;108,55
2018-04-24 21:00;103,7
2018-04-24 21:15;98,95
2018-04-24 21:30;98,05
2018-04-24 21:45;87,15
2018-04-24 22:00;84,95
2018-04-24 22:15;86,45
2018-04-24 22:30;86,35
2018-04-24 22:45;85,6
2018-04-24 23:00;92,35
2018-04-24 23:15;86,3
2018-04-24 23:30;87,65
2018-04-24 23:45;88,65
2018-04-25 00:00;80,5
2018-04-25 00:15;81,7
2018-04-25 00:30;84,5
2018-04-25 00:45;86,45
2018-04-25 01:00;86,45
2018-04-25 01:15;85,3
2018-04-25 01:30;83,75
2018-04-25 01:45;80,8
2018-04-25 02:00;80,8
2018-04-25 02:15;80,6
2018-04-25 02:30;79,95
2018-04-25 02:45;80,85
2018-04-25 03:00;83,55
2018-04-25 03:15;82,2
2018-04-25 03:30;82,15
2018-04-25 03:45;83,8
2018-04-25 04:00;84,35
2018-04-25 04:15;82,25
2018-04-25 04:30;81,65
2018-04-25 04:45;82,25
2018-04-25 05:00;81,7
2018-04-25 05:15;83,2
2018-04-25 05:30;83,55
2018-04-25 05:45;83,6
2018-04-25 06:00;83
2018-04-25 06:15;79
2018-04-25 06:30;75,7
2018-04-25 06:45;73,45
2018-04-25 07:00;73,9
2018-04-25 07:15;73,95
2018-04-25 07:30;78,8
2018-04-25 07:45;81,6
2018-04-25 08:00;83,1
2018-04-25 08:15;86,2
2018-04-25 08:30;92,5
2018-04-25 08:45;97,1
2018-04-25 09:00;100,3
2018-04-25 09:15;104,25
2018-04-25 09:30;107,7
2018-04-25 09:45;111,8
2018-04-25 10:00;115,75
2018-04-25 10:15;121,45
2018-04-25 10:30;121,7
2018-04-25 10:45;122,85
2018-04-25 11:00;130
2018-04-25 11:15;130,25
2018-04-25 11:30;134,25
2018-04-25 11:45;132,4
2018-04-25 12:00;134,45
2018-04-25 12:15;134,15
2018-04-25 12:30;135,5
2018-04-25 12:45;138,7
2018-04-25 13:00;137,1
2018-04-25 13:15;137,45
2018-04-25 13:30;137,55
2018-04-25 13:45;138,4
2018-04-25 14:00;136,65
2018-04-25 14:15;139,45
2018-04-25 14:30;137,75
2018-04-25 14:45;133,3
2018-04-25 15:00;133,5
2018-04-25 15:15;129,75
2018-04-25 15:30;126,7
2018-04-25 15:45;124,7
2018-04-25 16:00;123,1
2018-04-25 16:15;121,2
2018-04-25 16:30;117,15
2018-04-25 16:45;118,65
2018-04-25 17:00;116,1
2018-04-25 17:15;113,2
2018-04-25 17:30;110,05
2018-04-25 17:45;114,85
2018-04-25 18:00;108,15
2018-04-25 18:15;105,4
2018-04-25 18:30;101,2
2018-04-25 18:45;103,85
2018-04-25 19:00;102,1
2018-04-25 19:15;104,5
2018-04-25 19:30;104,4
2018-04-25 19:45;103,4
2018-04-25 20:00;98,05
2018-04-25 20:15;103,95
2018-04-25 20:30;103,65
2018-04-25 20:45;103,05
2018-04-25 21:00;103,3
2018-04-25 21:15;95,05
2018-04-25 21:30;95,45
2018-04-25 21:45;92
2018-04-25 22:00;88,3
2018-04-25 22:15;84,5
2018-04-25 22:30;82,1
2018-04-25 22:45;81,5
2018-04-25 23:00;85,55
2018-04-25 23:15;82,45
2018-04-25 23:30;82,65
2018-04-25 23:45;81,15
2018-04-26 00:00;76,7
2018-04-26 00:15;76,8
2018-04-26 00:30;74,35
2018-04-26 00:45;75,35
2018-04-26 01:00;73,5
2018-04-26 01:15;74,35
2018-04-26 01:30;73,75
2018-04-26 01:45;73,85
2018-04-26 02:00;72,15
2018-04-26 02:15;74,35
2018-04-26 02:30;76,4
2018-04-26 02:45;75,95
2018-04-26 03:00;76,6
2018-04-26 03:15;75,75
2018-04-26 03:30;77,15
2018-04-26 03:45;78,5
2018-04-26 04:00;78,2
2018-04-26 04:15;76,2
2018-04-26 04:30;77,55
2018-04-26 04:45;76,55
2018-04-26 05:00;75,95
2018-04-26 05:15;78,15
2018-04-26 05:30;80,05
2018-04-26 05:45;80,35
2018-04-26 06:00;79,85
2018-04-26 06:15;81,2
2018-04-26 06:30;79,1
2018-04-26 06:45;75,65
2018-04-26 07:00;74,35
2018-04-26 07:15;71,9
2018-04-26 07:30;73,6
2018-04-26 07:45;77,2
2018-04-26 08:00;80,75
2018-04-26 08:15;82,3
2018-04-26 08:30;87,55
2018-04-26 08:45;91,55
2018-04-26 09:00;94,1
2018-04-26 09:15;95,85
2018-04-26 09:30;102,3
2018-04-26 09:45;108,25
2018-04-26 10:00;112
2018-04-26 10:15;112,55
2018-04-26 10:30;115,2
2018-04-26 10:45;122,25
2018-04-26 11:00;124,4
2018-04-26 11:15;124,2
2018-04-26 11:30;126,65
2018-04-26 11:45;127,15
2018-04-26 12:00;126,95
2018-04-26 12:15;130
2018-04-26 12:30;130,2
2018-04-26 12:45;135,9
2018-04-26 13:00;136,05
2018-04-26 13:15;136,2
2018-04-26 13:30;138,2
2018-04-26 13:45;137,1
2018-04-26 14:00;135,6
2018-04-26 14:15;137,5
2018-04-26 14:30;137,25
2018-04-26 14:45;132,55
2018-04-26 15:00;129,15
2018-04-26 15:15;128,15
2018-04-26 15:30;123,85
2018-04-26 15:45;121,7
2018-04-26 16:00;122,85
2018-04-26 16:15;117,5
2018-04-26 16:30;117
2018-04-26 16:45;116,2
2018-04-26 17:00;112,25
2018-04-26 17:15;107,3
2018-04-26 17:30;104,5
2018-04-26 17:45;105,25
2018-04-26 18:00;102,55
2018-04-26 18:15;106,5
2018-04-26 18:30;103,3
2018-04-26 18:45;108,4
2018-04-26 19:00;104,05
2018-04-26 19:15;101,3
2018-04-26 19:30;100,95
2018-04-26 19:45;102
2018-04-26 20:00;99,7
2018-04-26 20:15;100,6
2018-04-26 20:30;100,65
2018-04-26 20:45;98,75
2018-04-26 21:00;97,25
2018-04-26 21:15;97,6
2018-04-26 21:30;94,5
2018-04-26 21:45;89,45
2018-04-26 22:00;88,45
2018-04-26 22:15;84,6
2018-04-26 22:30;84,45
2018-04-26 22:45;84,35
2018-04-26 23:00;89,5
2018-04-26 23:15;85,25
2018-04-26 23:30;88
2018-04-26 23:45;83,25
2018-04-27 00:00;80,95
2018-04-27 00:15;82,8
2018-04-27 00:30;79,95
2018-04-27 00:45;80,05
2018-04-27 01:00;81,85
2018-04-27 01:15;79,6
2018-04-27 01:30;78,75
2018-04-27 01:45;80,5
2018-04-27 02:00;78,75
2018-04-27 02:15;78,7
2018-04-27 02:30;80,3
2018-04-27 02:45;77,45
2018-04-27 03:00;74,75
2018-04-27 03:15;77,45
2018-04-27 03:30;76,45
2018-04-27 03:45;75,85
2018-04-27 04:00;77,5
2018-04-27 04:15;74,95
2018-04-27 04:30;73,9
2018-04-27 04:45;75,4
2018-04-27 05:00;74,85
2018-04-27 05:15;75,15
2018-04-27 05:30;79,15
2018-04-27 05:45;78,5
2018-04-27 06:00;78
2018-04-27 06:15;81,45
2018-04-27 06:30;78,7
2018-04-27 06:45;75
2018-04-27 07:00;78,1
2018-04-27 07:15;76,95
2018-04-27 07:30;79
2018-04-27 07:45;81,3
2018-04-27 08:00;82,8
2018-04-27 08:15;86,55
2018-04-27 08:30;91,35
2018-04-27 08:45;91,65
2018-04-27 09:00;91,85
2018-04-27 09:15;100
2018-04-27 09:30;105,4
2018-04-27 09:45;109,9
2018-04-27 10:00;113,9
2018-04-27 10:15;120,35
2018-04-27 10:30;123,2
2018-04-27 10:45;124,9
2018-04-27 11:00;126,5
2018-04-27 11:15;129,2
2018-04-27 11:30;132,3
2018-04-27 11:45;131,85
2018-04-27 12:00;132,75
2018-04-27 12:15;129,9
2018-04-27 12:30;131,55
2018-04-27 12:45;131,65
2018-04-27 13:00;131,6
2018-04-27 13:15;132,6
2018-04-27 13:30;137,65
2018-04-27 13:45;137,65
2018-04-27 14:00;136,35
2018-04-27 14:15;136,3
2018-04-27 14:30;136,55
2018-04-27 14:45;130
2018-04-27 15:00;130,5
2018-04-27 15:15;126,7
2018-04-27 15:30;120,5
2018-04-27 15:45;118,55
2018-04-27 16:00;116,05
2018-04-27 16:15;111,7
2018-04-27 16:30;109,25
2018-04-27 16:45;109,2
2018-04-27 17:00;108,55
2018-04-27 17:15;104,6
2018-04-27 17:30;102,45
2018-04-27 17:45;104,3
2018-04-27 18:00;100,85
2018-04-27 18:15;100,65
2018-04-27 18:30;100,85
2018-04-27 18:45;100,75
2018-04-27 19:00;102
2018-04-27 19:15;102,05
2018-04-27 19:30;99,25
2018-04-27 19:45;99,45
2018-04-27 20:00;102,1
2018-04-27 20:15;100,9
2018-04-27 20:30;101,5
2018-04-27 20:45;102,4
2018-04-27 21:00;102,05
2018-04-27 21:15;97,25
2018-04-27 21:30;95,6
2018-04-27 21:45;90,65
2018-04-27 22:00;84,65
2018-04-27 22:15;84,3
2018-04-27 22:30;84,8
2018-04-27 22:45;83,4
2018-04-27 23:00;86,5
2018-04-27 23:15;80,6
2018-04-27 23:30;81,75
2018-04-27 23:45;77,15
2018-04-28 00:00;76,05
2018-04-28 00:15;79,25
2018-04-28 00:30;80
2018-04-28 00:45;81,15
2018-04-28 01:00;82,35
2018-04-28 01:15;82,35
2018-04-28 01:30;80,9
2018-04-28 01:45;82,65
2018-04-28 02:00;81,95
2018-04-28 02:15;80,5
2018-04-28 02:30;80,75
2018-04-28 02:45;81,5
2018-04-28 03:00;80,05
2018-04-28 03:15;77,35
2018-04-28 03:30;77,45
2018-04-28 03:45;79,8
2018-04-28 04:00;78,75
2018-04-28 04:15;76,95
2018-04-28 04:30;76,95
2018-04-28 04:45;77,3
2018-04-28 05:00;76,95
2018-04-28 05:15;76,9
2018-04-28 05:30;78,75
2018-04-28 05:45;77,3
2018-04-28 06:00;80
2018-04-28 06:15;77,6
2018-04-28 06:30;74,9
2018-04-28 06:45;69,75
2018-04-28 07:00;69,1
2018-04-28 07:15;68,7
2018-04-28 07:30;67,15
2018-04-28 07:45;66,4
2018-04-28 08:00;67,65
2018-04-28 08:15;70,1
2018-04-28 08:30;69,6
2018-04-28 08:45;69,45
2018-04-28 09:00;70,95
2018-04-28 09:15;71,4
2018-04-28 09:30;70,05
2018-04-28 09:45;70,3
2018-04-28 10:00;71,8
2018-04-28 10:15;70,25
2018-04-28 10:30;69,1
2018-04-28 10:45;71,05
2018-04-28 11:00;71,1
2018-04-28 11:15;71,8
2018-04-28 11:30;74,5
2018-04-28 11:45;73
2018-04-28 12:00;72,55
2018-04-28 12:15;73
2018-04-28 12:30;75,3
2018-04-28 12:45;73,8
2018-04-28 13:00;72,75
2018-04-28 13:15;78
2018-04-28 13:30;72,4
2018-04-28 13:45;72,75
2018-04-28 14:00;74,05
2018-04-28 14:15;71,7
2018-04-28 14:30;74,35
2018-04-28 14:45;76,35
2018-04-28 15:00;74,15
2018-04-28 15:15;75,05
2018-04-28 15:30;72,75
2018-04-28 15:45;73,65
2018-04-28 16:00;76,6
2018-04-28 16:15;75,85
2018-04-28 16:30;72,45
2018-04-28 16:45;74,3
2018-04-28 17:00;76,9
2018-04-28 17:15;73,9
2018-04-28 17:30;74,15
2018-04-28 17:45;77,25
2018-04-28 18:00;73,35
2018-04-28 18:15;77,75
2018-04-28 18:30;78,15
2018-04-28 18:45;78,65
2018-04-28 19:00;78,35
2018-04-28 19:15;75,45
2018-04-28 19:30;75
2018-04-28 19:45;81,4
2018-04-28 20:00;79,65
2018-04-28 20:15;80,15
2018-04-28 20:30;82,25
2018-04-28 20:45;85,05
2018-04-28 21:00;81,45
2018-04-28 21:15;81,65
2018-04-28 21:30;82,3
2018-04-28 21:45;78,85
2018-04-28 22:00;78,35
2018-04-28 22:15;79,55
2018-04-28 22:30;77,05
2018-04-28 22:45;77,8
2018-04-28 23:00;83,95
2018-04-28 23:15;78,5
2018-04-28 23:30;75,85
2018-04-28 23:45;76,8
2018-04-29 00:00;74,7
2018-04-29 00:15;74
2018-04-29 00:30;74,9
2018-04-29 00:45;75,55
2018-04-29 01:00;74,2
2018-04-29 01:15;73,95
2018-04-29 01:30;73,7
2018-04-29 01:45;72,5
2018-04-29 02:00;71,2
2018-04-29 02:15;70,8
2018-04-29 02:30;71,8
2018-04-29 02:45;72,8
2018-04-29 03:00;70,9
2018-04-29 03:15;71,45
2018-04-29 03:30;73,8
2018-04-29 03:45;74,35
2018-04-29 04:00;76,4
2018-04-29 04:15;76,2
2018-04-29 04:30;74,1
2018-04-29 04:45;75,3
2018-04-29 05:00;75,3
2018-04-29 05:15;75
2018-04-29 05:30;74,8
2018-04-29 05:45;77,05
2018-04-29 06:00;78,25
2018-04-29 06:15;77,5
2018-04-29 06:30;77,6
2018-04-29 06:45;72,5
2018-04-29 07:00;73,3
2018-04-29 07:15;70,85
2018-04-29 07:30;71,45
2018-04-29 07:45;70,05
2018-04-29 08:00;70,85
2018-04-29 08:15;69,2
2018-04-29 08:30;68,95
2018-04-29 08:45;67,95
2018-04-29 09:00;67,3
2018-04-29 09:15;68,5
2018-04-29 09:30;67,2
2018-04-29 09:45;66,8
2018-04-29 10:00;66,55
2018-04-29 10:15;68
2018-04-29 10:30;67,5
2018-04-29 10:45;65,85
2018-04-29 11:00;70,05
2018-04-29 11:15;69,55
2018-04-29 11:30;70,4
2018-04-29 11:45;70,6
2018-04-29 12:00;72,15
2018-04-29 12:15;70,45
2018-04-29 12:30;70,9
2018-04-29 12:45;71,65
2018-04-29 13:00;71,45
2018-04-29 13:15;71,95
2018-04-29 13:30;73,85
2018-04-29 13:45;76,9
2018-04-29 14:00;74,65
2018-04-29 14:15;74,65
2018-04-29 14:30;74,25
2018-04-29 14:45;73,85
2018-04-29 15:00;73,4
2018-04-29 15:15;71,6
2018-04-29 15:30;71,85
2018-04-29 15:45;72,25
2018-04-29 16:00;69,95
2018-04-29 16:15;68,35
2018-04-29 16:30;69,35
2018-04-29 16:45;72,5
2018-04-29 17:00;73,35
2018-04-29 17:15;70,4
2018-04-29 17:30;72,5
2018-04-29 17:45;78,3
2018-04-29 18:00;74,5
2018-04-29 18:15;73,8
2018-04-29 18:30;73,25
2018-04-29 18:45;73,35
2018-04-29 19:00;73,85
2018-04-29 19:15;77,45
2018-04-29 19:30;79,25
2018-04-29 19:45;80,95
2018-04-29 20:00;83
2018-04-29 20:15;85,5
2018-04-29 20:30;88,2
2018-04-29 20:45;88,7
2018-04-29 21:00;88,3
2018-04-29 21:15;86,5
2018-04-29 21:30;85,05
2018-04-29 21:45;84,6
2018-04-29 22:00;81,85
2018-04-29 22:15;83
2018-04-29 22:30;83,6
2018-04-29 22:45;83,8
2018-04-29 23:00;86,65
2018-04-29 23:15;82
2018-04-29 23:30;82,45
2018-04-29 23:45;79,45

